| time (UTC) | temp C | wind direction | speed KPH | gust KPH | rain 1hr cm | rain 24hr cm | rain mn cm | humidity % | barometer mb |
| 20260505194517 | 19 | 229 | 4.8 | 11.3 | 0.00 | 0.00 | 0.00 | 59 | 1008.2 |
| 20260505193020 | 20 | 247 | 1.6 | 4.8 | 0.00 | 0.00 | 0.00 | 56 | 1007.8 |
| 20260505191517 | 20 | 239 | 1.6 | 6.4 | 0.00 | 0.00 | 0.00 | 57 | 1008.1 |
| 20260505190015 | 20 | 240 | 1.6 | 6.4 | 0.00 | 0.00 | 0.00 | 57 | 1008.3 |
| 20260505184516 | 20 | 232 | 3.2 | 9.7 | 0.00 | 0.00 | 0.00 | 58 | 1008.6 |
| 20260505183019 | 20 | 240 | 4.8 | 11.3 | 0.00 | 0.00 | 0.00 | 57 | 1008.8 |
| 20260505181513 | 18 | 234 | 3.2 | 14.5 | 0.00 | 0.00 | 0.00 | 58 | 1008.8 |
| 20260505180017 | 19 | 227 | 8.0 | 19.3 | 0.00 | 0.00 | 0.00 | 58 | 1008.9 |
| 20260505174510 | 19 | 236 | 6.4 | 17.7 | 0.00 | 0.00 | 0.00 | 57 | 1008.7 |
| 20260505173010 | 20 | 245 | 9.7 | 20.9 | 0.00 | 0.00 | 0.00 | 55 | 1008.6 |
| 20260505171509 | 20 | 212 | 4.8 | 11.3 | 0.00 | 0.00 | 0.00 | 55 | 1008.7 |
| 20260505170016 | 20 | 174 | 6.4 | 14.5 | 0.00 | 0.00 | 0.00 | 54 | 1008.6 |
| 20260505164509 | 20 | 252 | 8.0 | 17.7 | 0.00 | 0.00 | 0.00 | 53 | 1008.8 |
| 20260505163010 | 20 | 215 | 8.0 | 16.1 | 0.00 | 0.00 | 0.00 | 55 | 1008.5 |
| 20260505161507 | 20 | 222 | 6.4 | 12.9 | 0.00 | 0.00 | 0.00 | 54 | 1008.2 |
| 20260505160108 | 20 | 216 | 4.8 | 14.5 | 0.00 | 0.00 | 0.00 | 55 | 1008.2 |
| 20260505153001 | 20 | 203 | 6.4 | 16.1 | 0.00 | 0.00 | 0.00 | 55 | 1008.2 |
| 20260505151604 | 19 | 193 | 6.4 | 17.7 | 0.00 | 0.00 | 0.00 | 55 | 1008.3 |
| 20260505124535 | 15 | 188 | 1.6 | 4.8 | 0.00 | 0.00 | 0.00 | 51 | 1008.0 |
| 20260505123033 | 15 | 174 | 3.2 | 6.4 | 0.00 | 0.00 | 0.00 | 53 | 1007.7 |
| 20260505121533 | 15 | 181 | 1.6 | 4.8 | 0.00 | 0.00 | 0.00 | 52 | 1007.8 |
| 20260505120035 | 15 | 192 | 0.0 | 4.8 | 0.00 | 0.00 | 0.00 | 52 | 1007.8 |
| 20260505114530 | 15 | 184 | 0.0 | 6.4 | 0.00 | 0.00 | 0.00 | 53 | 1007.7 |
| 20260505113032 | 15 | 197 | 1.6 | 8.0 | 0.00 | 0.00 | 0.00 | 54 | 1007.7 |
| 20260505111529 | 15 | 184 | 1.6 | 6.4 | 0.00 | 0.00 | 0.00 | 52 | 1007.7 |
| 20260505101521 | 15 | 229 | 1.6 | 3.2 | 0.00 | 0.00 | 0.00 | 56 | 1007.2 |
| 20260505100022 | 15 | 198 | 1.6 | 4.8 | 0.00 | 0.00 | 0.00 | 58 | 1007.1 |
| 20260505094517 | 15 | 226 | 1.6 | 3.2 | 0.00 | 0.00 | 0.00 | 58 | 1007.0 |
| 20260505093027 | 15 | 217 | 1.6 | 6.4 | 0.00 | 0.00 | 0.00 | 59 | 1006.7 |
| 20260505091516 | 16 | 221 | 3.2 | 8.0 | 0.00 | 0.00 | 0.00 | 59 | 1006.7 |
| 20260505090014 | 16 | 202 | 1.6 | 4.8 | 0.00 | 0.00 | 0.00 | 60 | 1006.5 |
| 20260505084511 | 16 | 215 | 3.2 | 11.3 | 0.00 | 0.00 | 0.00 | 60 | 1006.5 |
| 20260505083010 | 16 | 230 | 3.2 | 9.7 | 0.00 | 0.00 | 0.00 | 60 | 1006.3 |
| 20260505081509 | 16 | 203 | 4.8 | 9.7 | 0.00 | 0.00 | 0.00 | 60 | 1006.1 |
| 20260505080011 | 16 | 226 | 1.6 | 8.0 | 0.00 | 0.00 | 0.00 | 60 | 1006.0 |
| 20260505074508 | 16 | 195 | 4.8 | 8.0 | 0.00 | 0.00 | 0.00 | 60 | 1005.8 |
| 20260505073007 | 16 | 209 | 3.2 | 6.4 | 0.00 | 0.00 | 0.00 | 60 | 1005.8 |
| 20260505071506 | 16 | 231 | 3.2 | 11.3 | 0.00 | 0.00 | 0.00 | 60 | 1005.7 |
| 20260505070006 | 16 | 195 | 3.2 | 6.4 | 0.00 | 0.00 | 0.00 | 60 | 1005.8 |
| 20260505064506 | 16 | 210 | 3.2 | 8.0 | 0.00 | 0.00 | 0.00 | 59 | 1005.8 |
| 20260505063002 | 16 | 208 | 3.2 | 6.4 | 0.00 | 0.00 | 0.00 | 60 | 1005.9 |
| 20260505061500 | 16 | 224 | 3.2 | 8.0 | 0.00 | 0.00 | 0.00 | 60 | 1006.0 |
| 20260505060059 | 17 | 205 | 3.2 | 6.4 | 0.00 | 0.00 | 0.00 | 60 | 1006.1 |
| 20260505054557 | 17 | 184 | 4.8 | 11.3 | 0.00 | 0.00 | 0.00 | 60 | 1006.5 |
| 20260505053105 | 17 | 184 | 3.2 | 6.4 | 0.00 | 0.00 | 0.00 | 60 | 1006.7 |
| 20260505051554 | 17 | 187 | 3.2 | 6.4 | 0.00 | 0.00 | 0.00 | 60 | 1006.8 |
| 20260505041545 | 16 | 164 | 3.2 | 6.4 | 0.00 | 0.00 | 0.00 | 60 | 1006.9 |
| 20260505040043 | 16 | 162 | 3.2 | 6.4 | 0.00 | 0.00 | 0.00 | 59 | 1007.0 |
| 20260505034542 | 16 | 186 | 3.2 | 8.0 | 0.00 | 0.00 | 0.00 | 60 | 1007.1 |
| 20260505033104 | 16 | 165 | 3.2 | 6.4 | 0.00 | 0.00 | 0.00 | 61 | 1007.2 |
| 20260505031541 | 16 | 177 | 1.6 | 6.4 | 0.00 | 0.00 | 0.00 | 61 | 1007.2 |
| 20260505030042 | 16 | 178 | 1.6 | 4.8 | 0.00 | 0.00 | 0.00 | 61 | 1007.1 |
| 20260505024540 | 16 | 188 | 1.6 | 6.4 | 0.00 | 0.00 | 0.00 | 61 | 1007.0 |
| 20260505023052 | 16 | 170 | 3.2 | 6.4 | 0.00 | 0.00 | 0.00 | 61 | 1007.2 |
| 20260505021539 | 16 | 184 | 1.6 | 4.8 | 0.00 | 0.00 | 0.00 | 61 | 1007.3 |
| 20260505020046 | 17 | 176 | 3.2 | 4.8 | 0.00 | 0.00 | 0.00 | 61 | 1007.4 |
| 20260505014537 | 17 | 184 | 3.2 | 6.4 | 0.00 | 0.00 | 0.00 | 60 | 1007.3 |
| 20260505013037 | 17 | 207 | 3.2 | 6.4 | 0.00 | 0.00 | 0.00 | 60 | 1007.2 |
| 20260505011537 | 17 | 178 | 3.2 | 6.4 | 0.00 | 0.00 | 0.00 | 60 | 1007.2 |
| 20260505010041 | 17 | 191 | 3.2 | 11.3 | 0.00 | 0.00 | 0.00 | 59 | 1007.1 |
| 20260505004544 | 18 | 210 | 3.2 | 6.4 | 0.00 | 0.00 | 0.00 | 58 | 1007.1 |
| 20260505003037 | 18 | 216 | 3.2 | 8.0 | 0.00 | 0.00 | 0.00 | 57 | 1006.8 |
| 20260505001534 | 18 | 203 | 6.4 | 12.9 | 0.00 | 0.00 | 0.00 | 57 | 1006.7 |
| 20260505000036 | 18 | 229 | 4.8 | 16.1 | 0.00 | 0.00 | 0.00 | 57 | 1006.5 |
| 20260504234555 | 19 | 195 | 3.2 | 9.7 | 0.00 | 0.00 | 0.00 | 57 | 1006.4 |
| 20260504233034 | 20 | 226 | 1.6 | 8.0 | 0.00 | 0.00 | 0.00 | 55 | 1006.3 |
| 20260504231542 | 20 | 209 | 4.8 | 11.3 | 0.00 | 0.00 | 0.00 | 53 | 1006.4 |
| 20260504230030 | 20 | 237 | 3.2 | 14.5 | 0.00 | 0.00 | 0.00 | 55 | 1006.5 |
| 20260504224529 | 20 | 209 | 3.2 | 12.9 | 0.00 | 0.00 | 0.00 | 53 | 1006.7 |
| 20260504223027 | 21 | 219 | 6.4 | 17.7 | 0.00 | 0.00 | 0.00 | 53 | 1006.6 |
| 20260504221527 | 21 | 223 | 6.4 | 16.1 | 0.00 | 0.00 | 0.00 | 53 | 1006.8 |
| 20260504220026 | 21 | 224 | 9.7 | 20.9 | 0.00 | 0.00 | 0.00 | 53 | 1006.6 |
| 20260504214533 | 20 | 186 | 8.0 | 16.1 | 0.00 | 0.00 | 0.00 | 53 | 1006.8 |
| 20260504213026 | 21 | 223 | 8.0 | 16.1 | 0.00 | 0.00 | 0.00 | 53 | 1006.9 |
| 20260504211521 | 21 | 202 | 4.8 | 16.1 | 0.00 | 0.00 | 0.00 | 53 | 1007.0 |
| 20260504210020 | 21 | 218 | 4.8 | 12.9 | 0.00 | 0.00 | 0.00 | 52 | 1007.0 |
| 20260504204544 | 21 | 236 | 9.7 | 17.7 | 0.00 | 0.00 | 0.00 | 52 | 1007.1 |
| 20260504203017 | 22 | 242 | 8.0 | 14.5 | 0.00 | 0.00 | 0.00 | 50 | 1007.0 |
| 20260504201516 | 21 | 224 | 4.8 | 16.1 | 0.00 | 0.00 | 0.00 | 52 | 1007.1 |
| 20260504200016 | 22 | 167 | 6.4 | 14.5 | 0.00 | 0.00 | 0.00 | 50 | 1007.3 |